This is the latest recevied weather packets stored in our database for station/object SQ7IQO. If no packets are shown the sender has not sent any weather packets the latest 10 day(s).
| Time | Temp. | Humidity | Pressure | Rain* | Wind** | Luminosity | Snow |
|---|---|---|---|---|---|---|---|
| 1787645856 | 21.11° C | 64% | 1022.3 hPa | 0 mm | 0 m/s | - | - |
| 1787645796 | 20.56° C | 63% | 1022.2 hPa | 0 mm | 0 m/s | - | - |
| 1787645736 | 20.56° C | 61% | 1022.3 hPa | 0 mm | 0 m/s | - | - |
| 1787645676 | 21.11° C | 61% | 1022.3 hPa | 0 mm | 0.45 m/s, ° | - | - |
| 1787645616 | 21.11° C | 60% | 1022.3 hPa | 0 mm | 0 m/s | - | - |
| 1787645556 | 21.11° C | 64% | 1022.3 hPa | 0 mm | 0 m/s | - | - |
| 1787645496 | 21.11° C | 60% | 1022.3 hPa | 0 mm | 0 m/s | - | - |
| 1787645436 | 21.67° C | 60% | 1022.2 hPa | 0 mm | 0 m/s | - | - |
| 1787645376 | 21.67° C | 63% | 1022.2 hPa | 0 mm | 0 m/s | - | - |
| 1787645316 | 21.11° C | 60% | 1022.2 hPa | 0 mm | 0 m/s | - | - |
| 1787645256 | 21.11° C | 62% | 1022.1 hPa | 0 mm | 0 m/s | - | - |
| 1787645196 | 21.11° C | 63% | 1022.1 hPa | 0 mm | 0 m/s | - | - |
| 1787645136 | 21.11° C | 63% | 1022.1 hPa | 0 mm | 0 m/s | - | - |
| 1787645076 | 21.11° C | 61% | 1022.2 hPa | 0 mm | 0 m/s | - | - |
| 1787645016 | 21.67° C | 59% | 1022.2 hPa | 0 mm | 0 m/s | - | - |
| 1787644956 | 21.67° C | 58% | 1022.3 hPa | 0 mm | 0 m/s | - | - |
| 1787644896 | 22.22° C | 61% | 1022.3 hPa | 0 mm | 0 m/s | - | - |
| 1787644836 | 21.67° C | 59% | 1022.2 hPa | 0 mm | 0 m/s | - | - |
| 1787644776 | 21.67° C | 60% | 1022.3 hPa | 0 mm | 0 m/s | - | - |
| 1787644716 | 22.22° C | 56% | 1022.3 hPa | 0 mm | 0 m/s | - | - |
| 1787644656 | 22.22° C | 61% | 1022.3 hPa | 0 mm | 0 m/s | - | - |
| 1787644596 | 21.67° C | 63% | 1022.3 hPa | 0 mm | 0 m/s | - | - |
| 1787644536 | 20.56° C | 66% | 1022.3 hPa | 0 mm | 0 m/s | - | - |
| 1787644476 | 20.56° C | 65% | 1022.3 hPa | 0 mm | 0 m/s | - | - |
| 1787644416 | 20° C | 63% | 1022.3 hPa | 0 mm | 0 m/s | - | - |
* Rain latest hour (hover to see other rain measurements)
** Current wind speed in m/s (hover to see current wind gust speed)